This is the latest recevied weather packets stored in our database for station/object APPOWX. If no packets are shown the sender has not sent any weather packets the latest 1 day(s).
| Time | Temp. | Humidity | Pressure | Rain* | Wind** | Luminosity | Snow |
|---|---|---|---|---|---|---|---|
| 1777998226 | 25° C | 42% | 1017.1 hPa | 0 mm | - | - | - |
| 1777998046 | 24.44° C | 40% | 1017.3 hPa | 0 mm | - | - | - |
| 1777997865 | 24.44° C | 44% | 1017.3 hPa | 0 mm | - | - | - |
| 1777997685 | 23.89° C | 42% | 1017.3 hPa | 0 mm | - | - | - |
| 1777997625 | 23.89° C | 42% | 1017.4 hPa | 0 mm | - | - | - |
| 1777997204 | 24.44° C | 42% | 1017.6 hPa | 0 mm | - | - | - |
| 1777996964 | 24.44° C | 44% | 1017.4 hPa | 0 mm | - | - | - |
| 1777996482 | 23.33° C | 43% | 1017.3 hPa | 0 mm | - | - | - |
| 1777996422 | 23.33° C | 44% | 1017.5 hPa | 0 mm | - | - | - |
| 1777996361 | 23.33° C | 46% | 1017.7 hPa | 0 mm | - | - | - |
| 1777996301 | 23.33° C | 45% | 1017.5 hPa | 0 mm | - | - | - |
| 1777996001 | 24.44° C | 43% | 1017.6 hPa | 0 mm | - | - | - |
| 1777995940 | 23.89° C | 45% | 1017.6 hPa | 0 mm | - | - | - |
| 1777995880 | 23.89° C | 45% | 1017.5 hPa | 0 mm | - | - | - |
| 1777995579 | 23.33° C | 47% | 1017.6 hPa | 0 mm | - | - | - |
| 1777994979 | 23.89° C | 46% | 1017.6 hPa | 0 mm | - | - | - |
| 1777994859 | 23.89° C | 48% | 1017.5 hPa | 0 mm | - | - | - |
| 1777994799 | 23.89° C | 45% | 1017.6 hPa | 0 mm | - | - | - |
| 1777994678 | 23.89° C | 47% | 1017.4 hPa | 0 mm | - | - | - |
| 1777994618 | 23.89° C | 44% | 1017.4 hPa | 0 mm | - | - | - |
| 1777994558 | 23.89° C | 51% | 1017.6 hPa | 0 mm | - | - | - |
| 1777994498 | 23.89° C | 50% | 1017.6 hPa | 0 mm | - | - | - |
| 1777994258 | 23.33° C | 53% | 1017.6 hPa | 0 mm | - | - | - |
| 1777994197 | 23.33° C | 49% | 1017.6 hPa | 0 mm | - | - | - |
| 1777993777 | 23.33° C | 48% | 1017.7 hPa | 0 mm | - | - | - |
* Rain latest hour (hover to see other rain measurements)
** Current wind speed in m/s (hover to see current wind gust speed)